[[{"header":{"parameterUnit":"m.s-1","parameterCategory":1,"la1":30.2991,"la2":30.254,"lo1":-89.0895,"lo2":-89.0444,"dy":0.0017,"dx":0.0017,"nx":28,"ny":28,"refTime":"2023-08-06T03:00:00:Z","depth":0,"parameterNumber":2,"parameterNumberName":"U-component_of_WINDS"},"data":[0,0,0,0,0,0,0,0,0,0,0,0,0,0,0,0,0,0,0,0,0,0,0,0,0,0,0,0,0,0,0,0,0,0,0,0,0,0,0,0,0,0,0,0,0,0,0,0,0,0,0,0,0,0,0,0,0,0,2.6201,2.6201,0,2.6256,2.6257,2.6258,2.6216,2.6215,2.6213,2.6211,2.6275,2.6279,2.6282,0,0,0,0,0,0,0,0,0,0,0,0,0,2.6066,2.6069,2.6201,2.6201,2.6202,2.6256,2.6257,2.6258,2.6217,2.6214,2.6212,2.621,2.6274,2.6278,2.6282,0,0,0,0,0,0,0,0,0,0,0,0,0,2.6124,2.607,2.62,2.6188,2.6187,2.6256,2.6257,2.6258,2.6217,2.6214,2.6212,2.6209,2.6273,2.6278,2.6283,2.637,0,0,2.6299,2.6301,0,0,0,0,0,0,0,0,2.612,2.6129,2.6189,2.6189,2.6188,2.6226,2.6233,2.6296,2.6218,2.6206,2.6211,2.6208,2.6262,2.6268,2.6284,2.6373,2.6375,2.6299,2.6302,2.6304,2.6306,0,0,0,0,0,0,0,2.6117,2.6126,2.6223,2.619,2.6189,2.6182,2.6187,2.6245,2.6249,2.6207,2.6204,2.6211,2.6261,2.628,2.6286,2.6376,2.6299,2.6304,2.6307,2.6309,2.6542,2.6545,0,0,0,0,0,0,2.6113,2.6123,2.6221,2.6225,2.6147,2.6187,2.6192,2.6217,2.6248,2.625,2.6213,2.6209,2.6272,2.628,2.6288,2.6393,2.6304,2.6309,2.6312,2.6539,2.6543,2.6546,0,0,0,0,0,0,2.611,2.6122,2.6219,2.6173,2.6185,2.6192,2.622,2.622,2.6238,2.6253,2.6254,2.6231,2.627,2.6281,2.635,2.6395,2.6312,2.6316,2.6535,2.654,2.6544,2.6604,0,0,0,0,0,0,2.6106,2.6121,2.6152,2.6174,2.6187,2.6278,2.6223,2.6223,2.6246,2.6241,2.627,2.6272,2.6269,2.6342,2.6355,2.6401,2.632,2.6531,2.6537,2.6543,2.6598,2.661,2.6621,0,0,0,0,0,2.6102,2.6168,2.6154,2.6166,2.6226,2.628,2.6288,2.6282,2.625,2.6283,2.6292,2.6271,2.6388,2.635,2.6364,2.6412,2.6528,2.6536,2.6542,2.6593,2.6608,2.662,0,0,0,0,0,0,2.6153,2.617,2.6155,2.623,2.6254,2.6273,2.6314,2.6297,2.6332,2.6326,2.6319,2.6326,2.6399,2.6412,2.6369,2.6499,2.6453,2.6464,2.6487,2.6502,2.6513,2.6509,2.6324,0,0,0,0,0,2.6172,2.6213,2.6227,2.6291,2.6304,2.6307,2.6331,2.6323,2.6349,2.6359,2.6374,2.6402,2.6445,2.6474,2.6514,2.66,2.6607,2.664,2.6651,2.666,2.667,2.6719,2.6734,2.6569,2.6569,2.6569,0,0,2.6214,2.6229,2.6255,2.6302,2.632,2.6365,2.6316,2.6365,2.6399,2.6368,2.6434,2.6446,2.6477,2.6555,2.659,2.6568,2.6717,2.6669,2.6676,2.6681,2.6728,2.6743,2.6757,2.6574,2.6573,2.6572,0,0,2.6314,2.6327,2.6384,2.6402,2.6429,2.6431,2.6445,2.6467,2.6473,2.6539,2.6517,2.6559,2.6633,2.6656,2.6678,2.6787,2.677,2.6801,2.686,2.6908,2.6921,2.6933,2.6975,2.699,2.681,2.681,2.681,0,2.6363,2.6427,2.6416,2.6466,2.6489,2.6461,2.652,2.6539,2.6579,2.6597,2.6571,2.6664,2.6682,2.6767,2.6794,2.6811,2.6829,2.6798,2.692,2.6931,2.6942,2.6982,2.6997,2.6814,2.6814,2.6813,2.6813,0,2.6488,2.6533,2.6575,2.6613,2.664,2.6695,2.6695,2.6724,2.6715,2.6721,2.679,2.6811,2.6856,2.6875,2.6867,2.696,2.6946,2.692,2.6875,2.6962,2.6999,2.7014,2.6819,2.6818,2.6817,2.6816,0,0,2.6621,2.6651,2.6668,2.6685,2.6713,2.675,2.6804,2.6846,2.6873,2.6902,2.695,2.7014,2.699,2.7015,2.7009,2.7051,2.714,2.7021,2.7021,2.7044,2.7247,2.7268,2.7285,2.7128,2.7131,2.7133,2.7245,0,2.6724,2.6816,2.6809,2.6898,2.6941,2.6916,2.6964,2.6988,2.6995,2.7035,2.7044,2.709,2.7054,2.7069,2.7109,2.7121,2.7181,2.7112,2.7176,2.7178,2.7171,2.7305,2.7326,2.7431,2.726,2.7262,2.7264,0,2.6855,2.6887,2.698,2.7004,2.7022,2.7065,2.7104,2.7141,2.717,2.7172,2.72,2.7188,2.7247,2.7198,2.7281,2.7234,2.726,2.727,2.7274,2.7281,2.7228,2.7318,2.7464,2.7481,2.7286,2.7285,2.7283,0,2.6947,2.7013,2.7078,2.7093,2.7121,2.7153,2.7167,2.7191,2.7218,2.7253,2.7271,2.7313,2.7337,2.7371,2.7372,2.7337,2.7457,2.7408,2.7463,2.7464,2.7491,2.749,2.7646,2.7504,2.7504,2.7504,2.7503,0,2.7063,2.7122,2.7119,2.716,2.7226,2.7217,2.7284,2.7294,2.7317,2.7361,2.7342,2.7384,2.7381,2.7425,2.7427,2.7496,2.7507,2.7513,2.7513,2.7516,2.7515,2.7534,2.7527,2.7508,2.7507,2.7506,2.7505,0,2.7177,2.7177,2.7246,2.7267,2.7274,2.7322,2.7341,2.7381,2.7386,2.7442,2.7455,2.7465,2.7515,2.7519,2.7578,2.7579,2.7664,2.7655,2.7654,2.7654,2.7709,2.7705,2.7884,2.7909,2.7749,2.7751,2.7752,0,2.7252,2.7296,2.7322,2.7349,2.7364,2.7408,2.7435,2.7429,2.7458,2.7494,2.7531,2.7579,2.7617,2.77,2.7714,2.776,2.7753,2.7813,2.776,2.7762,2.7757,2.7755,2.7761,2.7824,2.7826,2.7827,2.7828,0,2.7387,2.7385,2.7423,2.7462,2.7494,2.7525,2.7553,2.7577,2.7576,2.761,2.766,2.769,2.775,2.78,2.7844,2.7862,2.7847,2.7844,2.786,2.7865,2.7863,2.7867,2.7685,2.7841,2.784,2.7839,2.7838,2.7838,2.7485,2.7524,2.7548,2.7592,2.7613,2.7641,2.7679,2.7689,2.773,2.7777,2.7772,2.7829,2.7858,2.7917,2.7937,2.7984,2.7964,2.7986,2.7992,2.7998,2.8005,2.7854,2.7992,2.7991,2.7991,2.7991,2.7991,0,2.7621,2.7635,2.7675,2.7715,2.7751,2.773,2.7761,2.7793,2.7843,2.787,2.7908,2.7968,2.8016,2.8034,2.8081,2.8115,2.811,2.8128,2.8127,2.8132,2.8019,2.8001,2.8132,2.8132,2.8132,2.8132,2.8132,2.8132,2.7695,2.7761,2.7763,2.784,2.7854,2.7908,2.7928,2.7955,2.7977,2.8043,2.8083,2.8093,2.8117,2.8167,2.8211,2.8215,2.8235,2.8257,2.8259,2.8154,2.8139,2.8126,2.811,2.8261,2.8261,2.8368,2.8369,2.837]},{"header":{"parameterUnit":"m.s-1","parameterCategory":1,"la1":30.2991,"la2":30.254,"lo1":-89.0895,"lo2":-89.0444,"dy":0.0017,"dx":0.0017,"nx":28,"ny":28,"refTime":"2023-08-06T03:00:00:Z","depth":0,"parameterNumber":3,"parameterNumberName":"V-component_of_WINDS"},"data":[0,0,0,0,0,0,0,0,0,0,0,0,0,0,0,0,0,0,0,0,0,0,0,0,0,0,0,0,0,0,0,0,0,0,0,0,0,0,0,0,0,0,0,0,0,0,0,0,0,0,0,0,0,0,0,0,0,0,2.2479,2.2479,0,2.253,2.253,2.2531,2.2554,2.2554,2.2554,2.2554,2.2603,2.2605,2.2606,0,0,0,0,0,0,0,0,0,0,0,0,0,2.2397,2.2398,2.2479,2.2479,2.248,2.253,2.253,2.2531,2.2554,2.2554,2.2554,2.2554,2.2603,2.2605,2.2606,0,0,0,0,0,0,0,0,0,0,0,0,0,2.2438,2.2399,2.2479,2.2498,2.25,2.2529,2.253,2.2531,2.2554,2.2554,2.2554,2.2554,2.2602,2.2604,2.2606,2.262,0,0,2.2613,2.2614,0,0,0,0,0,0,0,0,2.2436,2.2441,2.2494,2.2496,2.2499,2.2536,2.252,2.2561,2.2554,2.2533,2.2554,2.2554,2.2581,2.2584,2.2594,2.2623,2.2625,2.2613,2.2614,2.2615,2.2616,0,0,0,0,0,0,0,2.2433,2.2439,2.2499,2.2495,2.2498,2.2502,2.2508,2.2528,2.2557,2.2535,2.2537,2.2543,2.2582,2.2592,2.2595,2.2625,2.2613,2.2615,2.2616,2.2617,2.2665,2.2665,0,0,0,0,0,0,2.2428,2.2437,2.2497,2.25,2.2467,2.2503,2.251,2.2524,2.2557,2.2562,2.2543,2.2544,2.2589,2.2593,2.2597,2.2614,2.2615,2.2617,2.2618,2.2665,2.2665,2.2665,0,0,0,0,0,0,2.2426,2.2433,2.2495,2.2469,2.2477,2.2505,2.252,2.2525,2.2535,2.2562,2.2567,2.2548,2.2589,2.2594,2.2614,2.2616,2.2618,2.262,2.2665,2.2665,2.2665,2.2649,0,0,0,0,0,0,2.2423,2.2432,2.2439,2.2469,2.2479,2.2512,2.252,2.2526,2.2539,2.254,2.2569,2.2573,2.2589,2.2611,2.2616,2.2619,2.2621,2.2665,2.2665,2.2665,2.2649,2.2648,2.2648,0,0,0,0,0,2.242,2.2432,2.2439,2.2446,2.2488,2.2513,2.2518,2.2537,2.2539,2.2545,2.2562,2.2572,2.2615,2.2613,2.2619,2.2622,2.2665,2.2665,2.2665,2.265,2.2649,2.2648,0,0,0,0,0,0,2.2402,2.2437,2.2445,2.2467,2.2487,2.2516,2.2525,2.2535,2.2554,2.2555,2.2576,2.2582,2.2599,2.2613,2.261,2.2636,2.2641,2.2642,2.2627,2.2626,2.2625,2.2621,2.2623,0,0,0,0,0,2.24,2.2418,2.2448,2.2464,2.2474,2.2497,2.2509,2.2521,2.2542,2.255,2.2569,2.2588,2.2605,2.2616,2.2634,2.2651,2.2656,2.2656,2.2655,2.2655,2.2655,2.2663,2.2663,2.2665,2.2665,2.2665,0,0,2.2397,2.2419,2.2429,2.2461,2.2478,2.2494,2.2504,2.2522,2.2534,2.2553,2.2573,2.2586,2.2608,2.2626,2.2635,2.2638,2.2656,2.2655,2.2654,2.2655,2.2663,2.2663,2.2663,2.2665,2.2665,2.2665,0,0,2.24,2.2419,2.2434,2.245,2.2475,2.249,2.2494,2.2522,2.2532,2.2552,2.2565,2.2579,2.2609,2.2624,2.2635,2.264,2.265,2.2645,2.2641,2.2648,2.2648,2.2648,2.2648,2.2648,2.2646,2.2646,2.2646,0,2.2393,2.242,2.244,2.2457,2.247,2.2487,2.2501,2.2516,2.2545,2.2552,2.2555,2.2592,2.2608,2.2628,2.2629,2.2639,2.2642,2.2643,2.2646,2.2647,2.2647,2.2647,2.2648,2.2645,2.2645,2.2645,2.2646,0,2.241,2.2428,2.2437,2.2464,2.2478,2.2493,2.2514,2.2525,2.2535,2.2549,2.2568,2.2588,2.2609,2.2614,2.2625,2.2636,2.2636,2.2643,2.2648,2.2645,2.2646,2.2647,2.2644,2.2644,2.2645,2.2645,0,0,2.2404,2.2441,2.2444,2.2455,2.2483,2.2497,2.2511,2.2532,2.254,2.2559,2.2571,2.2594,2.26,2.2612,2.2624,2.2631,2.2631,2.2636,2.2637,2.2634,2.2642,2.2637,2.2637,2.2638,2.2638,2.2638,2.264,0,2.241,2.2439,2.2456,2.2477,2.2492,2.2508,2.252,2.2537,2.255,2.2564,2.2578,2.2594,2.2601,2.2608,2.2615,2.263,2.2633,2.263,2.2647,2.2648,2.2641,2.2638,2.2633,2.2634,2.264,2.264,2.264,0,2.2422,2.244,2.2462,2.2486,2.2493,2.2504,2.2523,2.2537,2.2555,2.2564,2.2577,2.2589,2.2603,2.2606,2.2625,2.2622,2.263,2.2638,2.2638,2.264,2.2644,2.2639,2.2635,2.2634,2.2641,2.2641,2.2641,0,2.2414,2.2444,2.246,2.247,2.2498,2.2505,2.2517,2.2536,2.2546,2.2562,2.2569,2.2586,2.2596,2.2608,2.2623,2.2625,2.2639,2.2645,2.2646,2.2645,2.2649,2.2648,2.2645,2.2654,2.2654,2.2654,2.2654,0,2.2419,2.2432,2.2457,2.2467,2.2481,2.2499,2.2512,2.2525,2.2541,2.2552,2.2566,2.2577,2.2596,2.2609,2.262,2.2633,2.2637,2.2644,2.2646,2.2642,2.2641,2.2647,2.2648,2.2654,2.2654,2.2654,2.2654,0,2.2413,2.2431,2.2449,2.2474,2.248,2.2489,2.2509,2.2518,2.2531,2.2546,2.255,2.257,2.2585,2.2601,2.2621,2.2629,2.2641,2.2645,2.2634,2.2636,2.2636,2.2635,2.2636,2.2637,2.2646,2.2646,2.2646,0,2.2415,2.2425,2.245,2.2459,2.247,2.2484,2.2495,2.2512,2.2522,2.2543,2.2549,2.2565,2.2579,2.2601,2.2617,2.2632,2.2636,2.2635,2.2639,2.2633,2.2635,2.2634,2.2634,2.2634,2.2634,2.2634,2.2634,0,2.2416,2.2423,2.2438,2.2456,2.2468,2.2482,2.2497,2.2503,2.2523,2.2533,2.2549,2.2559,2.2579,2.2594,2.2611,2.2621,2.263,2.2633,2.2633,2.2629,2.2622,2.2625,2.2631,2.2633,2.2633,2.2633,2.2633,2.2633,2.2413,2.2422,2.244,2.2456,2.2468,2.2481,2.2491,2.2504,2.2518,2.2536,2.2544,2.2559,2.2575,2.2598,2.2608,2.2619,2.2622,2.2623,2.2624,2.2624,2.2622,2.262,2.2622,2.2622,2.2622,2.2622,2.2622,0,2.2414,2.2426,2.244,2.246,2.2471,2.2479,2.2495,2.2504,2.2517,2.2531,2.2544,2.256,2.2574,2.259,2.2604,2.2609,2.2614,2.2612,2.2612,2.2614,2.2619,2.2616,2.2609,2.2609,2.2609,2.2609,2.2609,2.2609,2.2415,2.243,2.2439,2.2459,2.2471,2.2486,2.2494,2.2505,2.2516,2.2534,2.2546,2.2556,2.257,2.2585,2.2598,2.2602,2.2606,2.2603,2.2608,2.2613,2.2614,2.2615,2.2612,2.2604,2.2604,2.2602,2.2602,2.2602]}]]